Weather History for Prerov, Czech Republic

Change the Weather History Date:

Sunday, January 20, 2013

  Actual Average Record
Temperature  
Mean Temperature 24 °F -  
Max Temperature 26 °F - - ()
Min Temperature 21 °F - - ()
Degree Days  
Heating Degree Days 42    
Moisture  
Dew Point 21 °F    
Average Humidity 89    
Maximum Humidity 93    
Minimum Humidity 86    
Precipitation  
Precipitation 0.00 in - - ()
Sea Level Pressure  
Sea Level Pressure 29.51 in    
Wind  
Wind Speed 7 mph ()    
Max Wind Speed 16 mph    
Max Gust Speed -    
Visibility 1.3 miles    
Events      
T = Trace of Precipitation, MM = Missing Value Source: Averaged Metar Reports

Daily Weather History Graph

Daily Weather History Graph

Search for Another Location

Airport:

Trip Planner

Search our weather history database for the weather conditions in past years. The results will help you decide how hot, cold, wet, or windy it might be!

Date:

Astronomy

Jan. 20, 2013 Rise Set
Actual Time 7:36 AM CET 4:26 PM CET
Civil Twilight 7:00 AM CET 5:02 PM CET
Nautical Twilight 6:21 AM CET 5:42 PM CET
Astronomical Twilight 5:43 AM CET 6:20 PM CET
Moon 11:20 AM CET (1/20) 1:47 AM CET (1/20)
Length of Visible Light 10h 02m
Length of Day
8h 50m
Waxing Gibbous, 64% of the Moon is Illuminated
Jan 20
Waxing Gibbous
Jan 27
Full
Feb 3
Last Quarter
Feb 10
New
Feb 17
First Quarter

Hourly Weather History & Observations

Time (CET) Temp. Windchill Dew Point Humidity Pressure Visibility Wind Dir Wind Speed Gust Speed Precip Events Conditions
12:00 AM 21.2 °F 12.6 °F 17.6 °F 86% 29.56 in - East 6.9 mph - N/A   Overcast
1:00 AM 21.2 °F 13.6 °F 17.6 °F 86% 29.56 in 1.9 mi East 5.8 mph - N/A   Overcast
2:00 AM 21.2 °F 14.9 °F 17.6 °F 86% 29.56 in 1.9 mi East 4.6 mph - N/A   Overcast
2:05 AM 21.2 °F 14.9 °F 17.6 °F 86% 29.56 in - East 4.6 mph - N/A   Overcast
3:00 AM 21.2 °F 12.6 °F 17.6 °F 86% 29.56 in - ENE 6.9 mph - N/A   Overcast
4:00 AM 21.2 °F 14.9 °F 17.6 °F 86% 29.53 in - ENE 4.6 mph - N/A   Overcast
5:00 AM 21.2 °F - 19.4 °F 93% 29.53 in - East 2.3 mph - N/A   Overcast
6:00 AM 21.2 °F 14.9 °F 19.4 °F 93% 29.53 in 1.9 mi East 4.6 mph - N/A   Overcast
7:00 AM 23.0 °F 17.0 °F 19.4 °F 86% 29.53 in 1.9 mi East 4.6 mph - N/A   Overcast
8:00 AM 23.0 °F 17.0 °F 19.4 °F 86% 29.53 in 1.9 mi East 4.6 mph - N/A   Overcast
8:40 AM 23.0 °F 15.8 °F 19.4 °F 86% 29.53 in 1.5 mi East 5.8 mph - N/A   Overcast
9:00 AM 23.0 °F 14.7 °F 19.4 °F 86% 29.53 in 1.5 mi East 6.9 mph - N/A   Overcast
10:00 AM 23.0 °F 13.9 °F 19.4 °F 86% 29.53 in 1.5 mi East 8.1 mph - N/A   Overcast
11:00 AM 24.8 °F 16.9 °F 21.2 °F 86% 29.53 in 1.6 mi ESE 6.9 mph - N/A   Overcast
12:00 PM 24.8 °F 16.1 °F 21.2 °F 86% 29.50 in 1.6 mi East 8.1 mph - N/A   Overcast
1:00 PM 26.6 °F 19.1 °F 23.0 °F 86% 29.50 in 1.6 mi East 6.9 mph - N/A   Overcast
2:00 PM 24.8 °F 15.3 °F 23.0 °F 93% 29.50 in 1.3 mi East 9.2 mph - N/A   Overcast
2:40 PM 24.8 °F 14.6 °F 23.0 °F 93% 29.50 in 0.9 mi East 10.4 mph - N/A   Light Freezing Rain
3:00 PM 24.8 °F 13.4 °F 23.0 °F 93% 29.50 in 0.9 mi East 12.7 mph - N/A   Light Freezing Rain
4:00 PM 24.8 °F 12.9 °F 23.0 °F 93% 29.50 in 0.7 mi East 13.8 mph - N/A   Light Freezing Rain
5:00 PM 24.8 °F 12.9 °F 23.0 °F 93% 29.47 in 0.7 mi East 13.8 mph - N/A   Light Freezing Rain
6:00 PM 26.6 °F 14.3 °F 23.0 °F 86% 29.47 in 0.7 mi East 16.1 mph - N/A   Light Freezing Rain
8:00 PM 26.6 °F 16.8 °F 23.0 °F 86% 29.47 in 0.9 mi ENE 10.4 mph - N/A   Light Freezing Rain
9:00 PM 26.6 °F 15.7 °F 24.8 °F 93% 29.47 in 0.9 mi ENE 12.7 mph - N/A   Light Freezing Rain
10:00 PM 26.6 °F 15.2 °F 24.8 °F 93% 29.47 in 0.9 mi ENE 13.8 mph - N/A   Light Freezing Rain
11:00 PM 26.6 °F 14.7 °F 24.8 °F 93% 29.44 in 0.9 mi ENE 15.0 mph - N/A   Overcast